SKYSAT-C1

Last updated on Sun Sep 20 2026 00:02:44 GMT+0000 (Coordinated Universal Time)

1 41601U 16040C 26262.03129568 .00006234 00000+0 17061-3 0 9997 2 41601 96.9520 288.7244 0003918 66.4506 293.7151 15.37663665572288
UTC large
Height (km)
Speed (km/s)
/
Latitude / Longitude
Inclination (degrees)
Orbital Period (minutes)
Azimuth
Elevation
Range (km)
Doppler Factor

Next 0 passes for location: London (51.5072 / 0.1276)

No passes found over London.
SKYSAT-C1